STARLINK-2084, 47368

Orbit data source: Space-Track

STARLINK-2084, 47368 is a payload satellite owned by SpaceX/Seattle (US) in LEO that was launched on Wed, 20 Jan 2021 UTC via an FALCON 9 launch vehicle from the Air Force Eastern Test Range (AFETR). Payload-class satellites include a variety of spacecraft equipped with specific instruments for various scientific and technological missions. These include communications satellites like Starlink; space stations such as the ISS; scientific satellites like the Hubble; Earth observation satellites from companies like Planet Labs, Umbra, and HawkEye 360; GPS; miniature CubeSats for education and research; and military/defense satellites.

Loading next visibility...
Identifier
47368, 2021-005V
Orbit
LEO
Country
Flag of USUS
Related business
Manufacturer
SpaceX/Seattle
Mission
Operational Commercial Communications
Bus & Motor
STARLINK, Unknown motor
Mass
260 kg wet, ~248 kg dry
Launch date (UTC)
2021-01-20 (5 years ago)
Launch vehicle
FALCON 9
Launch site
Air Force Eastern Test Range (AFETR)
Object type
Payload
Rocket body
Debris
Shape & HBR
Box + 1 Pan, 10.1 m
Radar Cross Section
13.562 m², Large (>1 m²)

Expand to show TLE details & history
Last TLE update: 2 days ago

TLE from 2 days ago
0 STARLINK-2084
1 47368U 21005V   26171.37595939  .00001024  00000-0  44750-4 0  9994
2 47368  53.1611 304.7933 0001022  71.1725 288.9387 15.31693975298760
Epoch: 2026-06-20T09:01Z
TLE epoch observation values (Epoch: 2026-06-20T09:01:22.891Z)
Latitude
-0.00003°
Longitude
-99.14358°
Altitude
471.431 km
Speed
7.632 km/s
True Right ascension
20h 19m 10s
True Declination
0° 00' 00"
Sunlit
Object was in full shadow at epoch
Visualization orbit readout
Latitude
Unknown
Longitude
Unknown
Altitude
Unknown
Speed
Unknown
Apparent Right ascension
Unknown
Apparent Declination
Unknown
Sunlit
N/A
Visualization observer readout
Local Sidereal Time
21:26:55
Azimuth
Unknown
Elevation
Unknown
Doppler factor
Unknown
Orbital elements
Apogee altitude
471.714 km
Perigee altitude
470.314 km
Semi-major axis
6,849.151 km
Eccentricity
0.0001
Inclination
53.1611°
RAAN
304.7933°
Arg. of periapsis
71.1725°
True anomaly
288.92762°
Mean anomaly
288.9387°
Eccentric anomaly
288.93316°
Mean motion
3.82902 °/min
Orbital period
94.02 mins
BSTAR
0.00004475
Loading maneuver chart data...
Computing Atmospheric mass density...
Loading historical data...
Loading historical data...
Loading historical data...
Loading historical data...
Loading historical data...
Loading historical data...
Loading historical data...

Documentation

Showing up to 5 results
|